| time (UTC) | temp F | wind direction | speed MPH | gust MPH | rain 1hr in | rain 24hr in | rain mn in | humidity % | barometer mb |
| 20260509162017 | 61 | 248 | 11.0 | 15.0 | 0.00 | 0.43 | 0.21 | 72 | 1004.8 |
| 20260509161017 | 62 | 225 | 7.0 | 13.0 | 0.00 | 0.43 | 0.21 | 72 | 1004.9 |
| 20260509160057 | 61 | 225 | 8.0 | 14.0 | 0.00 | 0.43 | 0.21 | 74 | 1004.9 |
| 20260509155057 | 60 | 225 | 11.0 | 19.0 | 0.00 | 0.43 | 0.21 | 74 | 1004.7 |
| 20260509154017 | 61 | 225 | 11.0 | 17.0 | 0.00 | 0.43 | 0.21 | 72 | 1005.0 |
| 20260509153017 | 60 | 225 | 8.0 | 13.0 | 0.00 | 0.43 | 0.21 | 75 | 1004.8 |
| 20260509152017 | 59 | 225 | 9.0 | 13.0 | 0.00 | 0.43 | 0.21 | 80 | 1004.8 |
| 20260509151017 | 59 | 225 | 8.0 | 12.0 | 0.00 | 0.43 | 0.21 | 82 | 1004.8 |
| 20260509150017 | 57 | 225 | 7.0 | 12.0 | 0.00 | 0.43 | 0.21 | 86 | 1004.8 |
| 20260509145017 | 57 | 248 | 7.0 | 12.0 | 0.00 | 0.43 | 0.21 | 86 | 1004.9 |
| 20260509144017 | 57 | 225 | 8.0 | 13.0 | 0.00 | 0.43 | 0.21 | 87 | 1004.7 |
| 20260509143017 | 57 | 225 | 8.0 | 15.0 | 0.00 | 0.43 | 0.21 | 88 | 1004.6 |
| 20260509142017 | 57 | 203 | 7.0 | 13.0 | 0.00 | 0.43 | 0.21 | 91 | 1004.6 |
| 20260509141017 | 56 | 225 | 6.0 | 12.0 | 0.00 | 0.43 | 0.21 | 92 | 1004.5 |
| 20260509140037 | 56 | 225 | 5.0 | 9.0 | 0.00 | 0.43 | 0.21 | 94 | 1004.6 |
| 20260509135017 | 55 | 225 | 6.0 | 10.0 | 0.00 | 0.43 | 0.21 | 94 | 1004.7 |
| 20260509134017 | 55 | 203 | 4.0 | 8.0 | 0.00 | 0.43 | 0.21 | 95 | 1004.7 |
| 20260509133017 | 55 | 203 | 3.0 | 7.0 | 0.00 | 0.43 | 0.21 | 95 | 1004.7 |
| 20260509132058 | 54 | 203 | 2.0 | 5.0 | 0.00 | 0.43 | 0.21 | 95 | 1004.7 |
| 20260509131017 | 54 | 203 | 4.0 | 7.0 | 0.00 | 0.43 | 0.21 | 95 | 1004.7 |
| 20260509130017 | 54 | 180 | 2.0 | 5.0 | 0.00 | 0.43 | 0.21 | 95 | 1004.7 |
| 20260509125017 | 53 | 203 | 2.0 | 7.0 | 0.00 | 0.43 | 0.21 | 95 | 1004.8 |
| 20260509124037 | 53 | 203 | 2.0 | 7.0 | 0.00 | 0.43 | 0.21 | 95 | 1005.0 |
| 20260509123017 | 53 | 203 | 2.0 | 7.0 | 0.00 | 0.43 | 0.21 | 95 | 1005.1 |
| 20260509122037 | 53 | 203 | 1.0 | 7.0 | 0.00 | 0.43 | 0.21 | 95 | 1005.1 |
| 20260509121017 | 53 | 0.0 | 3.0 | 0.00 | 0.43 | 0.21 | 95 | 1005.1 | |
| 20260509120037 | 53 | 0.0 | 2.0 | 0.00 | 0.43 | 0.21 | 95 | 1005.1 | |
| 20260509115017 | 53 | 203 | 2.0 | 6.0 | 0.00 | 0.43 | 0.21 | 95 | 1005.1 |
| 20260509114037 | 53 | 0.0 | 3.0 | 0.00 | 0.43 | 0.21 | 95 | 1005.0 | |
| 20260509113017 | 53 | 203 | 1.0 | 6.0 | 0.00 | 0.43 | 0.21 | 95 | 1005.0 |
| 20260509112017 | 52 | 203 | 1.0 | 7.0 | 0.00 | 0.43 | 0.21 | 95 | 1004.9 |
| 20260509111017 | 52 | 203 | 2.0 | 8.0 | 0.00 | 0.43 | 0.21 | 95 | 1004.9 |
| 20260509110037 | 52 | 203 | 1.0 | 4.0 | 0.00 | 0.43 | 0.21 | 95 | 1004.8 |
| 20260509105017 | 52 | 203 | 2.0 | 6.0 | 0.00 | 0.43 | 0.21 | 95 | 1004.8 |
| 20260509104017 | 52 | 203 | 2.0 | 5.0 | 0.00 | 0.43 | 0.21 | 95 | 1004.7 |
| 20260509103017 | 52 | 203 | 1.0 | 5.0 | 0.00 | 0.43 | 0.21 | 95 | 1004.7 |
| 20260509102017 | 52 | 0.0 | 3.0 | 0.00 | 0.43 | 0.21 | 95 | 1004.6 | |
| 20260509101037 | 52 | 0.0 | 2.0 | 0.00 | 0.43 | 0.21 | 95 | 1004.6 | |
| 20260509100037 | 52 | 0.0 | 1.0 | 0.00 | 0.44 | 0.21 | 95 | 1004.8 | |
| 20260509095017 | 52 | 0.0 | 1.0 | 0.00 | 0.44 | 0.21 | 95 | 1004.8 | |
| 20260509094037 | 52 | 180 | 1.0 | 5.0 | 0.00 | 0.44 | 0.21 | 95 | 1005.0 |
| 20260509093017 | 52 | 0.0 | 1.0 | 0.00 | 0.44 | 0.21 | 95 | 1004.9 | |
| 20260509092017 | 52 | 0.0 | 1.0 | 0.00 | 0.44 | 0.21 | 95 | 1005.1 | |
| 20260509091017 | 52 | 0.0 | 1.0 | 0.00 | 0.44 | 0.21 | 95 | 1005.0 | |
| 20260509090017 | 52 | 0.0 | 1.0 | 0.00 | 0.44 | 0.21 | 95 | 1005.1 | |
| 20260509085017 | 52 | 0.0 | 4.0 | 0.00 | 0.44 | 0.21 | 95 | 1005.2 | |
| 20260509084017 | 52 | 0.0 | 1.0 | 0.00 | 0.45 | 0.21 | 95 | 1005.3 | |
| 20260509083017 | 52 | 0.0 | 2.0 | 0.00 | 0.46 | 0.21 | 95 | 1005.3 | |
| 20260509082037 | 52 | 0.0 | 0.0 | 0.01 | 0.46 | 0.21 | 94 | 1005.4 | |
| 20260509081103 | 52 | 0.0 | 0.0 | 0.01 | 0.46 | 0.21 | 95 | 1005.5 | |
| 20260509080017 | 52 | 0.0 | 4.0 | 0.01 | 0.46 | 0.21 | 95 | 1005.4 | |
| 20260509075057 | 52 | 0.0 | 4.0 | 0.01 | 0.46 | 0.21 | 94 | 1005.5 | |
| 20260509074017 | 52 | 203 | 2.0 | 6.0 | 0.03 | 0.46 | 0.21 | 94 | 1005.6 |
| 20260509073017 | 52 | 203 | 2.0 | 6.0 | 0.03 | 0.46 | 0.21 | 94 | 1005.5 |
| 20260509072038 | 52 | 203 | 4.0 | 10.0 | 0.02 | 0.45 | 0.20 | 94 | 1005.6 |
| 20260509071017 | 52 | 203 | 6.0 | 10.0 | 0.03 | 0.45 | 0.20 | 95 | 1005.5 |
| 20260509070017 | 52 | 203 | 5.0 | 10.0 | 0.03 | 0.45 | 0.20 | 95 | 1005.6 |
| 20260509065017 | 52 | 203 | 4.0 | 8.0 | 0.05 | 0.45 | 0.20 | 95 | 1005.6 |
| 20260509064037 | 52 | 225 | 5.0 | 9.0 | 0.05 | 0.43 | 0.18 | 95 | 1005.9 |
| 20260509063037 | 52 | 225 | 3.0 | 6.0 | 0.07 | 0.43 | 0.18 | 95 | 1005.9 |
| 20260509062017 | 52 | 225 | 4.0 | 9.0 | 0.07 | 0.43 | 0.18 | 95 | 1006.0 |
| 20260509061017 | 52 | 225 | 2.0 | 7.0 | 0.06 | 0.42 | 0.17 | 95 | 1006.1 |
| 20260509060016 | 51 | 203 | 3.0 | 7.0 | 0.08 | 0.42 | 0.17 | 95 | 1006.2 |
| 20260509055015 | 51 | 0.0 | 4.0 | 0.09 | 0.40 | 0.15 | 94 | 1006.2 | |
| 20260509054015 | 51 | 180 | 2.0 | 10.0 | 0.08 | 0.38 | 0.13 | 94 | 1006.4 |
| 20260509053015 | 51 | 180 | 3.0 | 7.0 | 0.07 | 0.36 | 0.11 | 94 | 1006.5 |
| 20260509052055 | 51 | 203 | 2.0 | 7.0 | 0.08 | 0.36 | 0.11 | 94 | 1006.6 |
| 20260509051055 | 52 | 203 | 2.0 | 7.0 | 0.10 | 0.36 | 0.11 | 94 | 1006.7 |
| 20260509050036 | 51 | 203 | 4.0 | 8.0 | 0.09 | 0.34 | 0.09 | 94 | 1006.8 |
| 20260509045015 | 51 | 203 | 5.0 | 9.0 | 0.06 | 0.31 | 0.06 | 94 | 1006.8 |
| 20260509044015 | 51 | 203 | 3.0 | 7.0 | 0.06 | 0.30 | 0.05 | 94 | 1006.7 |
| 20260509043517 | 51 | 203 | 2.0 | 7.0 | 0.05 | 0.29 | 0.04 | 94 | 1006.7 |
| 20260509042515 | 51 | 203 | 3.0 | 9.0 | 0.04 | 0.28 | 0.03 | 94 | 1006.9 |
| 20260509041516 | 51 | 0.0 | 0.0 | 0.03 | 0.27 | 0.02 | 94 | 1007.0 | |
| 20260509040616 | 51 | 0.0 | 4.0 | 0.01 | 0.25 | 0.00 | 94 | 1007.0 | |
| 20260509035517 | 51 | 0.0 | 3.0 | 0.01 | 0.25 | 0.25 | 94 | 1007.1 | |
| 20260509034517 | 51 | 0.0 | 4.0 | 0.01 | 0.25 | 0.25 | 94 | 1007.5 | |
| 20260509033517 | 51 | 0.0 | 0.0 | 0.00 | 0.24 | 0.24 | 94 | 1007.6 | |
| 20260509032517 | 51 | 180 | 1.0 | 6.0 | 0.00 | 0.24 | 0.24 | 94 | 1007.5 |
| 20260509031537 | 51 | 0.0 | 3.0 | 0.01 | 0.24 | 0.24 | 94 | 1007.6 | |
| 20260509030517 | 51 | 0.0 | 3.0 | 0.01 | 0.24 | 0.24 | 94 | 1007.7 | |
| 20260509025517 | 51 | 0.0 | 4.0 | 0.02 | 0.24 | 0.24 | 94 | 1008.0 | |
| 20260509024517 | 51 | 0.0 | 2.0 | 0.02 | 0.24 | 0.24 | 93 | 1007.9 | |
| 20260509023557 | 51 | 0.0 | 1.0 | 0.03 | 0.24 | 0.24 | 93 | 1008.1 | |
| 20260509022517 | 51 | 0.0 | 1.0 | 0.03 | 0.24 | 0.24 | 93 | 1008.0 | |
| 20260509021517 | 51 | 0.0 | 1.0 | 0.02 | 0.23 | 0.23 | 93 | 1008.1 | |
| 20260509020537 | 51 | 0.0 | 0.0 | 0.03 | 0.23 | 0.23 | 93 | 1007.9 | |
| 20260509015517 | 51 | 180 | 1.0 | 5.0 | 0.02 | 0.22 | 0.22 | 93 | 1007.9 |
| 20260509014517 | 51 | 0.0 | 4.0 | 0.02 | 0.22 | 0.22 | 93 | 1007.8 | |
| 20260509013558 | 51 | 0.0 | 2.0 | 0.02 | 0.21 | 0.21 | 93 | 1007.9 | |
| 20260509012557 | 51 | 0.0 | 0.0 | 0.02 | 0.21 | 0.21 | 93 | 1007.8 | |
| 20260509011538 | 51 | 0.0 | 0.0 | 0.02 | 0.21 | 0.21 | 93 | 1007.6 | |
| 20260509010537 | 51 | 0.0 | 0.0 | 0.03 | 0.20 | 0.20 | 92 | 1007.6 | |
| 20260509005537 | 51 | 0.0 | 0.0 | 0.03 | 0.20 | 0.20 | 92 | 1007.6 | |
| 20260509004517 | 51 | 0.0 | 0.0 | 0.04 | 0.20 | 0.20 | 92 | 1007.6 | |
| 20260509003537 | 51 | 0.0 | 0.0 | 0.04 | 0.19 | 0.19 | 92 | 1007.6 | |
| 20260509002517 | 51 | 0.0 | 1.0 | 0.05 | 0.19 | 0.19 | 92 | 1007.4 | |
| 20260509001517 | 51 | 0.0 | 0.0 | 0.06 | 0.19 | 0.19 | 92 | 1007.4 | |
| 20260509000637 | 51 | 0.0 | 0.0 | 0.05 | 0.17 | 0.18 | 92 | 1007.5 | |
| 20260508235537 | 51 | 0.0 | 2.0 | 0.06 | 0.17 | 0.17 | 92 | 1007.5 | |
| 20260508234537 | 51 | 0.0 | 1.0 | 0.06 | 0.16 | 0.16 | 91 | 1007.7 | |
| 20260508233517 | 51 | 0.0 | 0.0 | 0.06 | 0.15 | 0.15 | 91 | 1007.7 | |
| 20260508232517 | 51 | 0.0 | 1.0 | 0.05 | 0.14 | 0.14 | 91 | 1007.5 | |
| 20260508231517 | 51 | 0.0 | 0.0 | 0.04 | 0.13 | 0.13 | 90 | 1007.5 | |
| 20260508230517 | 51 | 0.0 | 0.0 | 0.03 | 0.12 | 0.12 | 90 | 1007.4 | |
| 20260508225537 | 51 | 0.0 | 0.0 | 0.03 | 0.11 | 0.11 | 90 | 1007.3 | |
| 20260508224517 | 52 | 0.0 | 0.0 | 0.02 | 0.10 | 0.10 | 90 | 1007.2 | |
| 20260508223537 | 52 | 0.0 | 0.0 | 0.01 | 0.09 | 0.09 | 90 | 1007.3 | |
| 20260508222517 | 52 | 0.0 | 0.0 | 0.01 | 0.09 | 0.09 | 90 | 1007.2 | |
| 20260508221538 | 52 | 0.0 | 1.0 | 0.01 | 0.09 | 0.09 | 89 | 1007.3 | |
| 20260508220517 | 52 | 0.0 | 0.0 | 0.01 | 0.09 | 0.09 | 89 | 1007.3 | |
| 20260508215557 | 52 | 0.0 | 0.0 | 0.00 | 0.08 | 0.08 | 89 | 1007.0 | |
| 20260508214517 | 52 | 0.0 | 3.0 | 0.00 | 0.08 | 0.08 | 89 | 1006.9 | |
| 20260508213517 | 52 | 0.0 | 3.0 | 0.00 | 0.08 | 0.08 | 90 | 1006.6 | |
| 20260508213017 | 52 | 113 | 1.0 | 3.0 | 0.00 | 0.08 | 0.08 | 90 | 1006.6 |
| 20260508212017 | 52 | 0.0 | 3.0 | 0.00 | 0.08 | 0.08 | 90 | 1006.8 | |
| 20260508211037 | 52 | 0.0 | 3.0 | 0.00 | 0.08 | 0.08 | 89 | 1007.0 | |
| 20260508210038 | 52 | 0.0 | 0.0 | 0.00 | 0.08 | 0.08 | 89 | 1007.3 | |
| 20260508205017 | 52 | 0.0 | 0.0 | 0.00 | 0.08 | 0.08 | 89 | 1007.4 | |
| 20260508204017 | 52 | 0.0 | 0.0 | 0.01 | 0.08 | 0.08 | 89 | 1007.7 | |
| 20260508203037 | 52 | 0.0 | 0.0 | 0.01 | 0.08 | 0.08 | 89 | 1007.9 | |
| 20260508202017 | 52 | 0.0 | 0.0 | 0.02 | 0.08 | 0.08 | 88 | 1008.1 | |
| 20260508201038 | 51 | 0.0 | 0.0 | 0.03 | 0.08 | 0.08 | 88 | 1008.4 | |
| 20260508200017 | 51 | 0.0 | 0.0 | 0.03 | 0.08 | 0.08 | 88 | 1008.4 | |
| 20260508195017 | 51 | 0.0 | 1.0 | 0.03 | 0.08 | 0.08 | 87 | 1008.7 | |
| 20260508194018 | 51 | 0.0 | 4.0 | 0.02 | 0.07 | 0.07 | 87 | 1008.9 | |
| 20260508193037 | 51 | 203 | 2.0 | 6.0 | 0.02 | 0.07 | 0.07 | 86 | 1008.9 |
| 20260508192037 | 52 | 225 | 7.0 | 13.0 | 0.01 | 0.06 | 0.06 | 83 | 1009.2 |
| 20260508191017 | 53 | 203 | 7.0 | 11.0 | 0.00 | 0.05 | 0.05 | 81 | 1009.2 |
| 20260508190017 | 53 | 203 | 8.0 | 15.0 | 0.00 | 0.05 | 0.05 | 80 | 1009.1 |
| 20260508185037 | 54 | 203 | 7.0 | 12.0 | 0.01 | 0.05 | 0.05 | 81 | 1009.0 |
| 20260508184037 | 54 | 225 | 5.0 | 13.0 | 0.02 | 0.05 | 0.05 | 83 | 1008.8 |
| 20260508183017 | 53 | 203 | 7.0 | 13.0 | 0.02 | 0.05 | 0.05 | 83 | 1009.0 |
| 20260508182017 | 53 | 203 | 7.0 | 11.0 | 0.02 | 0.05 | 0.05 | 85 | 1009.1 |
| 20260508181018 | 52 | 203 | 6.0 | 8.0 | 0.02 | 0.05 | 0.05 | 85 | 1009.2 |
| 20260508180017 | 52 | 203 | 7.0 | 12.0 | 0.02 | 0.05 | 0.05 | 83 | 1009.3 |
| 20260508175036 | 53 | 225 | 6.0 | 10.0 | 0.01 | 0.04 | 0.04 | 80 | 1009.7 |
| 20260508174517 | 53 | 225 | 6.0 | 11.0 | 0.00 | 0.03 | 0.03 | 79 | 1009.9 |
| 20260508173515 | 54 | 225 | 3.0 | 6.0 | 0.00 | 0.03 | 0.03 | 79 | 1010.0 |
| 20260508172538 | 54 | 225 | 5.0 | 9.0 | 0.00 | 0.03 | 0.03 | 78 | 1010.1 |
| 20260508171517 | 54 | 248 | 5.0 | 9.0 | 0.00 | 0.03 | 0.03 | 78 | 1010.1 |
| 20260508170515 | 54 | 248 | 5.0 | 8.0 | 0.00 | 0.03 | 0.03 | 78 | 1010.1 |
| 20260508165515 | 54 | 248 | 7.0 | 11.0 | 0.00 | 0.03 | 0.03 | 76 | 1010.2 |
| 20260508164535 | 54 | 225 | 7.0 | 11.0 | 0.00 | 0.03 | 0.03 | 76 | 1010.0 |
| 20260508163515 | 55 | 248 | 7.0 | 12.0 | 0.00 | 0.03 | 0.03 | 74 | 1010.1 |